Location: Krasnoyarskiy Pitomnik
(51.1333°N, 71.6167°E)
Time: 18:50:32
(UTC+00:00)

Vanguard 2 - Pass Details

Date: 28 April 2024
Orbit: 553 x 2914 km, 32.9° (Epoch: 22 May)

Event Time Altitude Azimuth Distance (km) Brightness Sun altitude
Exits shadow 21:09:21 23° 228° (SW) 3,983 10.6 -19.4°
Maximum altitude 21:17:25 38° 181° (S) 3,614 10.5 -18.8°
Drops below altitude 10° 21:32:34 10° 123° (ESE) 5,735 12.0 -17.4°
Sets 21:37:28 0° 116° (ESE) 6,700 12.5 -17.0°
